Retour au catalogue

FENGYUN 1C DEB

ActifSSO
NORAD 29877·DEBRIS·🇨🇳 China

Lancé May 10, 1999 depuis Taiyuan Satellite Launch Center

Loading…

Prochains Passages (prochaines 24 heures)

TLE

FraisSource: Space-Track

Époque: Sep 14, 2026, 00:01 UTC

1 29877U 99025FX  26257.00104921  .00000565  00000-0  25483-3 0  9998
2 29877  98.5409 259.9327 0046990 134.4707 281.7381 14.25323786 18898

Suivez FENGYUN 1C DEB en temps réel avec AllMySat

Download on the App Store